• MPC Preparation (Info)

  • MPEC 2016-O150: 2014 MG70

    The following Minor Planet Electronic Circular may be linked-to from your own Web pages, but must not otherwise be redistributed electronically.

    A form allowing access to any MPEC is at the bottom of this page.


    Read MPEC 2016-O149 Read MPEC 2016-O151


    M.P.E.C. 2016-O150                               Issued 2016 July 17, 08:30 UT
    
         The Minor Planet Electronic Circulars contain information on unusual
             minor planets and routine data on comets.  They are published
        on behalf of Division F of the International Astronomical Union by the
              Minor Planet Center, Smithsonian Astrophysical Observatory,
                              Cambridge, MA 02138, U.S.A.
    
                 Prepared using the Tamkin Foundation Computer Network
    
                                  MPC@CFA.HARVARD.EDU
                URL https://www.minorplanetcenter.net/    ISSN 1523-6714
    
                                       2014 MG70
    
    Observations:
         K14M70G  C2011 11 16.20927 20 54 50.916-20 22 55.10         21.9 wLEO150F51
         K14M70G  C2011 11 16.21420 20 54 50.931-20 22 54.58         22.1 wLEO150F51
         K14M70G  C2011 11 16.22394 20 54 50.940-20 22 55.05         22.3 wLEO150F51
         K14M70G  C2012 08 21.37832 21 02 38.433-19 42 28.77         22.2 wLEO150F51
         K14M70G  C2012 08 21.39217 21 02 38.376-19 42 29.02         22.2 wLEO150F51
         K14M70G  C2012 08 21.40631 21 02 38.307-19 42 29.45         22.4 wLEO150F51
         K14M70G  C2012 08 21.42014 21 02 38.233-19 42 29.52         22.1 wLEO150F51
         K14M70G  C2012 11 03.21432 20 59 37.256-19 47 38.74         22.3 wLEO150F51
         K14M70G  C2012 11 03.21905 20 59 37.263-19 47 38.58         22.3 wLEO150F51
         K14M70G  C2012 11 03.22859 20 59 37.280-19 47 38.64         22.4 wLEO150F51
         K14M70G  C2013 07 13.46557 21 10 55.855-18 50 46.89         22.0 wLEO150F51
         K14M70G  C2013 07 13.47945 21 10 55.800-18 50 47.24         22.1 wLEO150F51
         K14M70G  C2013 07 13.49905 21 10 55.700-18 50 47.47         22.3 wLEO150F51
         K14M70G  C2013 07 13.51365 21 10 55.642-18 50 47.83         22.1 wLEO150F51
         K14M70G  C2013 08 04.44662 21 09 11.730-18 57 33.71         22.1 wLEO150F51
         K14M70G  C2013 08 04.46052 21 09 11.663-18 57 34.02         21.8 wLEO150F51
         K14M70G  C2013 08 04.47443 21 09 11.592-18 57 34.39         22.3 wLEO150F51
         K14M70G  C2013 08 04.48832 21 09 11.514-18 57 34.62         22.0 wLEO150F51
         K14M70G* C2014 06 27.51313 21 17 05.131-18 05 37.09         22.3 wLEO150F51
         K14M70G  C2014 06 27.52487 21 17 05.100-18 05 37.06         22.7 wLEO150F51
         K14M70G  C2014 06 27.53657 21 17 05.049-18 05 37.39         22.2 wLEO150F51
         K14M70G  C2014 06 27.54824 21 17 05.010-18 05 37.70         22.2 wLEO150F51
         K14M70G  C2014 07 28.44807 21 14 53.884-18 14 38.50         22.1 wLEO150F51
         K14M70G  C2014 07 28.45993 21 14 53.832-18 14 38.92         22.0 wLEO150F51
         K14M70G  C2014 07 28.47181 21 14 53.765-18 14 39.12         22.3 wLEO150F51
         K14M70G  C2014 07 28.48368 21 14 53.706-18 14 39.26         22.2 wLEO150F51
         K14M70G  C2014 08 01.48634 21 14 34.327-18 15 55.39         22.1 wLEO150F51
         K14M70G  C2014 08 01.49823 21 14 34.278-18 15 55.83         22.2 wLEO150F51
         K14M70G  C2014 08 01.51013 21 14 34.206-18 15 56.10         22.0 wLEO150F51
         K14M70G  C2014 08 01.52201 21 14 34.153-18 15 56.32         22.0 wLEO150F51
         K14M70G  C2015 06 29.54772 21 22 01.430-17 24 50.07         21.6 iLEO150F51
         K14M70G  C2015 06 29.55874 21 22 01.388-17 24 50.03         21.6 iLEO150F51
         K14M70G  C2015 06 29.56975 21 22 01.372-17 24 50.54         21.6 iLEO150F51
    
    Observer details:
    F51 Pan-STARRS 1, Haleakala.  Observers B. Gibson, T. Goggia, N. Primak,
        A. Schultz, M. Willman.  Measurers K. Chambers, S. Chastel, Y.-T. Chen,
        L. Denneau, H. Flewelling, M. Holman, M. Huber, R. Jedicke, M. Lackner,
        E. Lilly, H.-W. Lin, E. Magnier, M. Micheli, M. Payne, P. Veres,
        R. Wainscoat, C. Waters, R. Weryk.  1.8-m Ritchey-Chretien + CCD.
    
    Orbital elements:
    2014 MG70
    Epoch 2016 July 31.0 TT = JDT 2457600.5                 MPC
    M 317.89700              (2000.0)            P               Q
    n   0.00346292     Peri.   38.84501     +0.98940626     -0.08090884
    a  43.2687464      Node   325.21935     +0.00163690     +0.83645828
    e   0.0512015      Incl.   12.19887     +0.14516395     +0.54202519
    P 285              H    5.8           G   0.15           U   3
    Residuals in seconds of arc
    111116 F51  0.0   0.0     130713 F51  0.0   0.1-    140728 F51  0.0   0.1+
    111116 F51  0.1+  0.4+    130713 F51  0.1-  0.0     140728 F51  0.0   0.1-
    111116 F51  0.1-  0.2-    130713 F51  0.0   0.1-    140728 F51  0.1-  0.1-
    120821 F51  0.0   0.0     130804 F51  0.1+  0.1+    140728 F51  0.1-  0.0
    120821 F51  0.1+  0.0     130804 F51  0.1+  0.0     140801 F51  0.1-  0.3+
    120821 F51  0.1+  0.2-    130804 F51  0.1+  0.1-    140801 F51  0.1+  0.1+
    120821 F51  0.0   0.1-    130804 F51  0.0   0.0     140801 F51  0.1-  0.1+
    121103 F51  0.1-  0.1-    140627 F51  0.1-  0.0     140801 F51  0.0   0.1+
    121103 F51  0.1-  0.0     140627 F51  0.1+  0.2+    150629 F51  0.0   0.2-
    121103 F51  0.1+  0.1-    140627 F51  0.0   0.0     150629 F51  0.1-  0.0
    130713 F51  0.1-  0.0     140627 F51  0.0   0.1-    150629 F51  0.3+  0.3-
    
    Ephemeris:
    2014 MG70                a,e,i = 43.27, 0.05, 12                 q = 41.053
    Date    TT    R. A. (2000) Decl.     Delta      r     Elong.  Phase     V
    2016 06 17    21 27 37.0 -16 40 33  41.0634 41.6833   127.0     1.1    22.1
    ...
    2016 07 02    21 26 51.2 -16 43 51  40.8810 41.6819   141.5     0.9    22.1
    ...
    2016 07 10    21 26 20.8 -16 46 02  40.8039 41.6811   149.3     0.7    22.1
    ...
    2016 07 16    21 25 55.8 -16 47 49  40.7565 41.6805   155.1     0.6    22.1
    2016 07 17    21 25 51.5 -16 48 07  40.7495 41.6804   156.1     0.6    22.1
    2016 07 18    21 25 47.1 -16 48 25  40.7427 41.6803   157.0     0.5    22.1
    ...
    2016 07 24    21 25 20.2 -16 50 19  40.7080 41.6797   162.8     0.4    22.0
    ...
    2016 08 01    21 24 42.6 -16 52 55  40.6773 41.6790   170.6     0.2    22.0
    ...
    2016 08 16    21 23 29.7 -16 57 51  40.6697 41.6775   174.4     0.1    22.0
    
    A. U. Tomatic                (C) Copyright 2016 MPC           M.P.E.C. 2016-O150
    

    Read MPEC 2016-O149 Read MPEC 2016-O151


    MPEC number:

    Enter an MPEC number in one of the following forms:

    • 1997-B01 (the full form)
    • J97B01 (the packed version of the full form)
    • B01 (the abbreviated form)